Flag for Colombia Weather past 2 weeks in San Juan de Pasto, Colombia

Now
50 °F

Passing clouds.


Feels Like: 49 °F
Forecast: 51 / 63 °F
Wind: 3 mph from South

Location: Latacunga Airport

Current Time: Jul 6, 2015 at 3:21:36 AM

Latest Report: Jul 6, 2015 at 3:00 AM


Visibility: N/A

Pressure: 30.42 "Hg (22.40 "Hg at 2535m altitude)

Humidity: 94%

Dew point: 48 °F

Location of San Juan de PastoLocation

Historic Weather in San Juan de Pasto — Graph

°F

San Juan de Pasto temperature yesterday

Maximum temperature yesterday: 68 °F (at 2:00 PM)
Minimum temperature yesterday: 50 °F (at 12:00 AM)
Average temperature yesterday: 56 °F

Past Weeks' High & Low Weather Summary

 TemperatureHumidityPressure
High70 °F (Jul 3, 3:00 PM)100% (Jun 22, 4:00 AM)30.54 "Hg (Jun 22, 4:00 AM)
Low46 °F (Jun 27, 6:00 AM)43% (Jul 3, 12:00 PM)30.30 "Hg (Jul 3, 3:00 PM)
Average55 °F80%30.44 "Hg
* Reported Jun 21 4:00 AM — Jul 6 2:00 AM, San Juan de Pasto, Weather by CustomWeather, © 2015

Note: Actual official high and low records may vary slightly from our data, if they occured in-between our weather recording intervals... More about our weather records

Advertising

San Juan de Pasto weather history for previous 24 hours

 ConditionsComfort  
Time TempWeatherWind HumidityBarometerVisibility
2:00 AM
Mon, Jul 6
52 °FPassing clouds.2 mph94%30.42 "HgN/A
1:00 AM52 °FPassing clouds.6 mph94%30.45 "HgN/A
12:00 AM52 °FPassing clouds.7 mph94%30.45 "HgN/A
10:00 PM
Sun, Jul 5
54 °FPassing clouds.14 mph88%30.45 "HgN/A
9:00 PM54 °FPassing clouds.9 mph94%30.45 "HgN/A
8:00 PM54 °FPassing clouds.13 mph94%30.42 "HgN/A
7:00 PM55 °FPassing clouds.10 mph94%30.42 "Hg5 mi
6:00 PM59 °FPartly sunny.18 mph77%30.39 "HgN/A
5:00 PM61 °FPartly sunny.16 mph77%30.36 "HgN/A
4:00 PM63 °FBroken clouds.22 mph68%30.36 "HgN/A
3:00 PM64 °FBroken clouds.17 mph56%30.36 "HgN/A
2:00 PM68 °FScattered clouds.21 mph49%30.39 "HgN/A
1:00 PM64 °FScattered clouds.18 mph60%30.39 "HgN/A
12:00 PM61 °FScattered showers. Partly sunny.12 mph63%30.42 "HgN/A
11:00 AM61 °FScattered showers. Partly sunny.17 mph63%30.45 "HgN/A
10:00 AM59 °FScattered showers. Partly sunny.17 mph72%30.45 "HgN/A
9:00 AM55 °FPartly sunny.14 mph77%30.45 "HgN/A
8:00 AM54 °FScattered clouds.15 mph88%30.45 "HgN/A
7:00 AM52 °FBroken clouds.16 mph94%30.45 "HgN/A
6:00 AM52 °FPassing clouds.8 mph88%30.42 "HgN/A
5:00 AM50 °FPassing clouds.12 mph94%30.42 "HgN/A
4:00 AM50 °FPassing clouds.9 mph94%30.39 "HgN/A
3:00 AM50 °FPassing clouds.7 mph94%30.39 "HgN/A
Weather by CustomWeather, © 2015

See weather overviewHow to use our weather pages